Home > Weather > Saint-Étienne > Past weeks

Flag for France Past Weather in Saint-Étienne, Rhône-Alpes, France — Yesterday and Last 2 Weeks

Now
61 °F

Clear.


Feels Like: 61 °F
Forecast: 51 / 71 °F
Wind: 3 mph from North

Location: St-Etienne Boutheon

Current Time: Jun 27, 2016 at 12:49:39 AM

Latest Report: Jun 27, 2016 at 12:00 AM


Visibility: 10 mi

Pressure: 30.21 "Hg (28.38 "Hg at 529m altitude)

Humidity: 63%

Dew Point: 48 °F

Location of Saint-ÉtienneLocation

Past Weather in Saint-Étienne — Graph

°F

Saint-Étienne Temperature Yesterday

Maximum temperature yesterday: 72 °F (at 3:30 PM)
Minimum temperature yesterday: 55 °F (at 6:00 AM)
Average temperature yesterday: 64 °F

High & Low Weather Summary for the Past Weeks

 TemperatureHumidityPressure
High91 °F (Jun 23, 3:30 PM)100% (Jun 25, 6:30 AM)30.30 "Hg (Jun 25, 6:30 AM)
Low46 °F (Jun 20, 4:00 AM)20% (Jun 23, 3:30 PM)29.56 "Hg (Jun 15, 7:30 PM)
Average65 °F66%30.00 "Hg
* Reported Jun 12 12:00 AM — Jun 27 12:00 AM, Saint-Étienne, Weather by CustomWeather, © 2016

Note: Actual official high and low records may vary slightly from our data, if they occured in-between our weather recording intervals... More about our weather records

Advertising

Saint-Étienne Weather History for the Previous 24 Hours

Scroll right to see more
 ConditionsComfort  
Time TempWeatherWind HumidityBarometerVisibility
12:00 AM
Mon, Jun 27
61 °FClear.3 mph63%30.21 "Hg10 mi
11:30 PM
Sun, Jun 26
61 °FPassing clouds.3 mph63%30.21 "HgN/A
11:00 PM61 °FPassing clouds.5 mph63%30.21 "HgN/A
10:30 PM63 °FSunny.3 mph59%30.18 "Hg10 mi
10:00 PM63 °FSunny.6 mph59%30.18 "Hg10 mi
9:30 PM64 °FSunny.8 mph56%30.18 "Hg10 mi
9:00 PM64 °FSunny.8 mph56%30.18 "Hg10 mi
8:30 PM66 °FSunny.9 mph49%30.15 "Hg10 mi
8:00 PM68 °FSunny.13 mph46%30.15 "Hg10 mi
7:30 PM68 °FPassing clouds.12 mph43%30.15 "HgN/A
7:00 PM70 °FPassing clouds.13 mph40%30.12 "HgN/A
6:30 PM70 °FPassing clouds.15 mph40%30.12 "HgN/A
6:00 PM70 °FScattered clouds.16 mph40%30.12 "HgN/A
5:30 PM70 °FScattered clouds.15 mph40%30.12 "HgN/A
5:00 PM70 °FScattered clouds.13 mph40%30.12 "HgN/A
4:30 PM72 °FScattered clouds.13 mph41%30.12 "HgN/A
4:00 PM70 °FScattered clouds.10 mph40%30.12 "HgN/A
3:30 PM72 °FScattered clouds.13 mph41%30.12 "HgN/A
3:00 PM70 °FScattered clouds.8 mph43%30.12 "HgN/A
2:30 PM70 °FScattered clouds.13 mph43%30.12 "HgN/A
2:00 PM68 °FScattered clouds.12 mph46%30.12 "HgN/A
1:30 PM70 °FScattered clouds.12 mph46%30.12 "HgN/A
1:00 PM70 °FScattered clouds.10 mph43%30.12 "HgN/A
12:30 PM70 °FPassing clouds.10 mph43%30.15 "HgN/A
12:00 PM68 °FPassing clouds.12 mph53%30.15 "HgN/A
11:30 AM66 °FPassing clouds.8 mph60%30.15 "HgN/A
11:00 AM66 °FPassing clouds.8 mph56%30.15 "HgN/A
10:30 AM66 °FPassing clouds.8 mph60%30.15 "HgN/A
9:30 AM63 °FPassing clouds.8 mph64%30.15 "HgN/A
9:00 AM61 °FPassing clouds.8 mph72%30.15 "HgN/A
8:30 AM61 °FPassing clouds.5 mph72%30.15 "HgN/A
8:00 AM59 °FPassing clouds.3 mph77%30.15 "HgN/A
7:30 AM57 °FPassing clouds.2 mph82%30.12 "HgN/A
7:00 AM55 °FPassing clouds.No wind88%30.12 "HgN/A
6:30 AM55 °FPassing clouds.2 mph88%30.12 "HgN/A
6:00 AM55 °FPassing clouds.No wind88%30.12 "HgN/A
5:30 AM57 °FLight rain. Passing clouds.No wind82%30.12 "HgN/A
5:00 AM57 °FPassing clouds.1 mph82%30.12 "HgN/A
4:30 AM59 °FPassing clouds.2 mph77%30.12 "HgN/A
4:00 AM59 °FMostly cloudy.2 mph77%30.12 "HgN/A
3:30 AM59 °FPartly cloudy.3 mph82%30.12 "HgN/A
3:00 AM59 °FPartly cloudy.2 mph82%30.12 "HgN/A
2:30 AM61 °FOvercast.3 mph72%30.12 "HgN/A
2:00 AM61 °FPartly cloudy.2 mph77%30.12 "HgN/A
1:30 AM63 °FPassing clouds.5 mph73%30.12 "HgN/A
1:00 AM63 °FClear.3 mph77%30.12 "Hg10 mi
12:30 AM64 °FMostly cloudy.5 mph73%30.12 "HgN/A
12:00 AM64 °FMostly cloudy.3 mph73%30.12 "HgN/A
Weather by CustomWeather, © 2016

See weather overviewHow to use our weather pages